Location: Aetna Mine
(37.6183°N, 107.6045°W)
Time: 23:45:10
(UTC+00:00)

Lacrosse 5 - Pass Details

Date: 18 September 2020
Orbit: 716 x 723 km, 57.0° (Epoch: 26 October)

Event Time Altitude Azimuth Distance (km) Brightness Sun altitude
Exits shadow 12:14:45 - 296° (WNW) 2,575 4.2 -8.8°
Reaches altitude 10° 12:16:36 10° 313° (NW) 2,202 4.0 -8.5°
Maximum altitude 12:18:47 13° 338° (NNW) 2,027 4.1 -8.0°
Drops below altitude 10° 12:20:59 10° 4° (N) 2,207 4.6 -7.6°
Sets 12:24:51 0° 33° (NNE) 3,131 5.8 -6.9°
